Fort Wayne, IN

12:59 AM EST on December 13, 2019 (GMT -0500)
Fort Wayne International

Weather History for KFWA - November, 2019

Change the Weather History Date:

Monday, November 18, 2019

  Actual Average Record
Temperature  
Mean Temperature 36 °F 40 °F  
Max Temperature 48 °F 49 °F 72 °F (1930)
Min Temperature 24 °F 32 °F 9 °F (2014)
Degree Days  
Heating Degree Days 29 25  
Month to date heating degree days 556 377  
Since 1 July heating degree days 939 886  
Cooling Degree Days 0 0  
Month to date cooling degree days 0 0  
Year to date cooling degree days 994 809  
Moisture  
Dew Point 32 °F    
Average Humidity 86    
Maximum Humidity 100    
Minimum Humidity 58    
Precipitation  
Precipitation T in 0.11 in 2.96 in (2017)
Month to date precipitation 0.36 1.80  
Year to date precipitation 34.91 34.28  
Snow  
Snow 0.00 in 0.10 in 3.00 in (1986)
Month to date snowfall 3.6 0.7  
Since 1 July snowfall 4.1 1.0  
Since 1 September snowfall 4.1 1.0  
Snow Depth 0.00 in    
Sea Level Pressure  
Sea Level Pressure 29.79 in    
Wind  
Wind Speed 2 mph ()    
Max Wind Speed 13 mph    
Max Gust Speed 18 mph    
Visibility 4.8 miles    
Events Fog    
T = Trace of Precipitation, MM = Missing Value Source: Averaged Metar Reports

Daily Weather History Graph

Daily Weather History Graph

Search for Another Location

Airport or City:

Astronomy

Nov. 18, 2019 Rise Set
Actual Time 7:31 AM EST 5:19 PM EST
Civil Twilight 7:01 AM EST 5:49 PM EST
Nautical Twilight 6:28 AM EST 6:23 PM EST
Astronomical Twilight 5:55 AM EST 6:55 PM EST
Moon 11:03 PM EST (11/18) 1:02 PM EST (11/18)
Length of Visible Light 10h 47m
Length of Day
9h 48m
Waning Gibbous, 63% of the Moon is Illuminated
Nov 18
Waning Gibbous
Nov 19
Last Quarter
Nov 26
New
Dec 4
First Quarter
Dec 12
Full

Hourly Weather History & Observations

Time (EST) Temp. Windchill Dew Point Humidity Pressure Visibility Wind Dir Wind Speed Gust Speed Precip Events Conditions
12:54 AM 32.0 °F - 28.9 °F 88% 29.86 in 8.0 mi Calm Calm - N/A   Mostly Cloudy
1:54 AM 30.9 °F - 28.0 °F 89% 29.84 in 10.0 mi Calm Calm - N/A   Mostly Cloudy
2:54 AM 30.0 °F - 27.0 °F 88% 29.82 in 8.0 mi Calm Calm - N/A   Mostly Cloudy
3:54 AM 28.0 °F - 25.0 °F 88% 29.81 in 9.0 mi Calm Calm - N/A   Scattered Clouds
4:54 AM 28.0 °F - 25.0 °F 88% 29.81 in 8.0 mi Calm Calm - N/A Fog Patches of Fog
5:54 AM 25.0 °F - 23.0 °F 92% 29.81 in 5.0 mi Calm Calm - N/A   Partly Cloudy
6:54 AM 25.0 °F - 23.0 °F 92% 29.81 in 8.0 mi Calm Calm - N/A Fog Shallow Fog
7:23 AM 26.1 °F - 23.0 °F 88% 29.80 in 2.5 mi Calm Calm - N/A   Scattered Clouds
7:29 AM 25.0 °F - 23.0 °F 92% 29.80 in 1.8 mi Calm Calm - N/A   Scattered Clouds
7:54 AM 25.0 °F - 23.0 °F 92% 29.82 in 1.5 mi Calm Calm - N/A   Partly Cloudy
8:16 AM 26.1 °F - 24.1 °F 92% 29.80 in 2.0 mi Calm Calm - N/A   Partly Cloudy
8:54 AM 30.0 °F - 28.0 °F 92% 29.82 in 2.5 mi Calm Calm - N/A   Partly Cloudy
9:23 AM 32.0 °F - 30.9 °F 96% 29.79 in 3.0 mi Calm Calm - N/A   Partly Cloudy
9:54 AM 36.0 °F - 32.0 °F 86% 29.81 in 6.0 mi Calm Calm - N/A   Partly Cloudy
10:54 AM 41.0 °F - 33.1 °F 73% 29.81 in 6.0 mi Calm Calm - N/A   Partly Cloudy
11:54 AM 44.1 °F - 32.0 °F 63% 29.79 in 7.0 mi Calm Calm - N/A   Partly Cloudy
12:54 PM 46.0 °F 44.8 °F 32.0 °F 58% 29.76 in 8.0 mi Variable 3.5 mph - N/A   Partly Cloudy
1:54 PM 46.9 °F - 33.1 °F 59% 29.75 in 8.0 mi WSW 8.1 mph - N/A   Partly Cloudy
2:54 PM 45.0 °F 40.1 °F 34.0 °F 65% 29.74 in 7.0 mi West 9.2 mph - N/A   Mostly Cloudy
3:54 PM 43.0 °F 38.2 °F 36.0 °F 76% 29.75 in 5.0 mi WSW 8.1 mph - N/A   Haze
4:36 PM 41.0 °F 35.8 °F 35.1 °F 79% 29.74 in 4.0 mi WSW 8.1 mph - N/A   Haze
4:54 PM 41.0 °F 34.7 °F 36.0 °F 82% 29.77 in 4.0 mi WSW 10.4 mph - N/A   Haze
5:09 PM 39.9 °F 33.9 °F 36.0 °F 86% 29.75 in 2.5 mi West 9.2 mph - N/A   Overcast
5:34 PM 39.9 °F 34.5 °F 36.0 °F 86% 29.76 in 4.0 mi West 8.1 mph - N/A   Overcast
5:46 PM 39.9 °F 33.9 °F 36.0 °F 86% 29.76 in 4.0 mi West 9.2 mph - N/A   Overcast
5:54 PM 39.0 °F 32.8 °F 36.0 °F 89% 29.79 in 3.0 mi West 9.2 mph - N/A   Overcast
6:54 PM 39.0 °F 34.8 °F 37.0 °F 93% 29.80 in 2.5 mi West 5.8 mph - N/A   Overcast
7:19 PM 39.0 °F 34.8 °F 37.0 °F 93% 29.77 in 3.0 mi West 5.8 mph - N/A   Overcast
7:54 PM 39.0 °F 34.0 °F 37.0 °F 93% 29.80 in 4.0 mi West 6.9 mph - N/A   Overcast
8:27 PM 37.9 °F 32.1 °F 37.0 °F 97% 29.77 in 4.0 mi WSW 8.1 mph - N/A   Overcast
8:54 PM 37.9 °F 33.5 °F 36.0 °F 93% 29.80 in 4.0 mi WSW 5.8 mph - N/A   Overcast
9:54 PM 37.9 °F 33.5 °F 36.0 °F 93% 29.79 in 4.0 mi West 5.8 mph - 0.00 in   Light Drizzle
10:37 PM 37.4 °F 34.9 °F 37.4 °F 100% 29.77 in 2.5 mi West 3.5 mph - N/A   Overcast
10:54 PM 37.0 °F 34.5 °F 36.0 °F 96% 29.78 in 2.0 mi WSW 3.5 mph - 0.00 in   Light Drizzle
11:54 PM 37.0 °F 33.3 °F 36.0 °F 96% 29.79 in 4.0 mi West 4.6 mph - 0.00 in   Light Drizzle